User: anonymous   Login
Location: Newark
(43.0000°N, 1.6781°W)
Time: 09:39:38
(UTC+00:00)
Language:

VELOX 1 - Orbit

View from above orbital plane
View from above orbital plane
View from above satellite
View from above satellite

Ground track
Ground track

The orbit data is extracted from the following two-line orbital elements,

1 40057U 14034E   22333.94466841  .00002006  00000-0  27332-3 0  9991
2 40057  98.3694 153.2721 0010962 156.2407 203.9320 14.79879306453949
Epoch (UTC): 29 November 2022 22:40:19
Eccentricity: 0.0010962
inclination: 98.3694°
perigee height: 622 km
apogee height: 637 km
right ascension of ascending node: 153.2721°
argument of perigee: 156.2407°
revolutions per day: 14.79879306
mean anomaly at epoch: 203.9320°
orbit number at epoch: 45394

The dashed part of the orbit path shows where the satellite is in the earth's shadow,  

DLR